Location: Il Ritiro
(43.4167°N, 13.1333°E)
Time: 07:37:28
(UTC+00:00)

Cosmos 1295 Rocket - Pass Details

Date: 05 July 2020
Orbit: 943 x 994 km, 82.9° (Epoch: 05 August)

Event Time Altitude Azimuth Distance (km) Brightness Sun altitude
Exits shadow 22:06:29 41° 190° (S) 1,364 4.8 -22.2°
Maximum altitude 22:08:50 86° 278° (W) 963 4.4 -22.3°
Drops below altitude 10° 22:14:59 10° 7° (N) 2,680 7.8 -22.6°
Sets 22:17:28 0° 8° (N) 3,626 8.6 -22.7°
